www.pogodaiklimat.ru

АРХИВ ПОГОДЫ в Сиэтле

Время (UTC), дата Ветер
(напр.,м/с)
 
Видим.   Явления Облачность Т
(С)
Тd
(С)
f
(%)
Тe
(С)
Тes
(С)
Комфортность

P
(гПа)

Po
(гПа)
Тmin
(С)
Tmax
(С)
R
(мм)
SD
(см)
12:53 18.01 Ю  7
{13} 
10 км  слабый дождь, дымка  10/10 450 м  +6.1  +3.9  86  +1  +1    1010.4  994.2         
13:34 18.01 Ю  7
{10} 
16 км    10/10 450 м  +7.0  +4.0  81  +2  +2      993.2         
13:53 18.01 Ю  16 км    10/5 1650 м
[средняя] 
+6.7  +3.9  82  +2  +2    1009.7  993.6         
14:53 18.01 Ю  16 км    8/2 1650 м
[средняя] 
+6.0  +4.0  87  +1  +1    1010.2  993.9         
15:53 18.01 ЮВ  16 км    2/2 1500 м
[средняя] 
+5.6  +3.9  89  0  0    1010.8  994.6         
16:53 18.01 ЮВ  16 км    8/5 1800 м
[средняя верхняя] 
+7.0  +4.0  81  +3  +3    1011.4  995.2         
17:53 18.01 ЮВ  16 км    8/0 2100 м
[средняя верхняя] 
+8.0  +4.0  76  +4  +4    1011.2  994.9  +5.6  +7.8     
18:53 18.01 ЮВ  16 км    8/2 1800 м
[средняя верхняя] 
+9.0  +4.0  71  +5  +5    1010.4  994.2         
19:53 18.01 Ю  16 км    8/2 1800 м
[средняя] 
+9.4  +3.3  66  +6  +6    1009.6  993.6         
20:53 18.01 Ю  16 км  слабый дождь  10/8 1050 м
[средняя] 
+8.9  +3.3  68  +5  +5      993.2         
21:53 18.01 З  16 км  слабый дождь  10/8 1140 м
[средняя] 
+7.8  +4.4  79  +5  +5    1008.8  992.6         
22:53 18.01 Ю  8 км  слабый дождь, дымка  10/10 810 м  +7.0  +6.0  93  +4  +4    1008.5  992.2         
23:05 18.01 ЮЗ  8 км  слабый дождь, дымка  10/10 780 м  +7.0  +6.0  93  +4  +4      992.2         
23:12 18.01 З   8 км  слабый дождь, дымка  10/10 840 м  +7.0  +6.0  93  +3  +3      992.2         
23:37 18.01 З  10 км  слабый дождь, дымка  10/10 210 м  +7.0  +6.0  93  +4  +4      992.6         
23:53 18.01 Ю  14 км  слабый дождь  10/8 270 м
[средняя] 
+6.7  +5.6  93  +3  +3    1008.9  992.6  +6.7  +10.0  2.0   
00:53 19.01 Ю  16 км  слабый дождь  8/8 810 м
[средняя] 
+6.7  +4.4  85  +2  +2    1009.3  992.9         
01:22 19.01 Ю  16 км    8/8 630 м
[средняя] 
+6.0  +4.0  87  +2  +2      993.2         
01:53 19.01 ЮВ  16 км    8/8 1110 м  +6.0  +4.0  87  +2  +2    1009.5  993.2         
02:53 19.01 ЮВ  16 км    5/5 1380 м
[средняя] 
+6.0  +4.0  87  +1  +1    1009.6  993.2         
03:53 19.01 ЮВ  16 км    5/2 1440 м
[средняя] 
+5.0  +3.3  89  -1  -1    1009.2  992.9         
04:53 19.01 штиль  16 км    8/5 1140 м
[средняя] 
+6.0  +2.0  75  +5  +5    1009.9  993.6         
05:53 19.01 Ю  16 км    5/2 1500 м
[средняя] 
+3.9  +2.2  89  -1  -1    1009.9  993.6  +3.9  +7.2  0.5   
06:53 19.01 Ю  16 км    8/5 1500 м
[средняя] 
+5.0  +2.0  81  +1  +1    1009.7  993.2         
07:53 19.01 Ю  16 км    8/0 2100 м
[средняя] 
+5.0  +2.2  82  +1  +1    1010.3  993.9         
08:53 19.01 Ю  16 км    8/0 2550 м
[средняя] 
+5.0  +1.7  79  +1  +1    1010.5  994.2         
09:53 19.01 Ю  16 км    5/0 2550 м
[средняя] 
+3.9  +1.1  82  -1  -1    1010.5  994.2         
10:53 19.01 ЮВ  16 км    5/0 2550 м
[средняя] 
+3.3  +1.1  85  -1  -1    1010.7  994.2         
11:53 19.01 ЮВ  16 км    5/0 2100 м
[средняя] 
+4.0  +2.0  87  -0  -0    1010.9  994.6  +3.3       
12:53 19.01 ЮВ  16 км    8/5 1500 м
[средняя] 
+4.0  +2.0  87  -1  -1    1011.1  994.9         
13:53 19.01 ЮВ  16 км    10/10 1380 м  +5.0  +2.2  82  +1  +1    1011.2  994.9         
14:53 19.01 ЮВ  16 км    10/10 1260 м  +5.0  +1.7  79  +1  +1    1011.5  995.2         
15:53 19.01 Ю  16 км    10/8 1500 м
[средняя] 
+5.0  +2.2  82  +1  +1    1011.9  995.6         
16:53 19.01 Ю  16 км    8/8 1050 м
[средняя] 
+5.6  +2.2  79  +2  +2    1012.4  995.9         
17:53 19.01 Ю  16 км    10/8 1050 м
[средняя] 
+6.7  +2.8  76  +3  +3      996.6  +3.9  +6.7  0.3   
18:53 19.01 Ю  16 км    10/10 1050 м  +7.2  +2.8  74  +3  +3      996.9         
19:53 19.01 Ю  6
{9} 
16 км  слабый дождь  10/10 750 м  +7.8  +2.8  71  +4  +4      996.9         
20:53 19.01 Ю  16 км    10/10 750 м  +7.8  +2.8  71  +4  +4    1013.1  996.6         
21:53 19.01 Ю  6
{11} 
16 км  слабый дождь  10/10 750 м  +7.2  +2.8  74  +3  +3      996.2         
22:53 19.01 Ю  16 км    10/10 900 м  +7.2  +3.3  76  +3  +3    1012.7  996.2         
23:53 19.01 Ю  16 км    10/10 1050 м  +8.0  +3.0  71  +4  +4    1012.7  996.2  +6.7  +7.8     
00:53 20.01 Ю  16 км    10/10 960 м  +7.8  +2.2  68  +3  +3    1012.7  996.2         
01:53 20.01 Ю  16 км    10/10 900 м  +7.8  +2.2  68  +4  +4    1012.8  996.6         
02:53 20.01 Ю  16 км    10/10 810 м  +7.0  +3.0  76  +2  +2    1013.0  996.6         
03:53 20.01 Ю  16 км    10/10 810 м  +7.2  +2.8  74  +3  +3    1013.4  996.9         
04:53 20.01 Ю  7
{10} 
16 км  слабый дождь  10/10 690 м  +7.0  +3.0  76  +2  +2    1013.9  997.6         
05:53 20.01 ЮЗ  16 км  слабый дождь  10/10 600 м  +7.2  +3.3  76  +2  +2    1014.2  997.9  +6.7  +7.8     
06:53 20.01 ЮЗ  6
{10} 
16 км    10/10 480 м  +6.7  +3.9  82  +2  +2    1014.8  998.2         

 

Местоположение метеостанции Seattle-Tacoma International Airport: широта 47.4447 долгота -122.3136 высота над уровнем моря 130 м.

В архиве по умолчанию представлена погода в Сиэтле за последние 1-2 суток. Обновление информации о фактической погоде в базе происходит ежечасно! Архивные данные за месяц целиком и за предыдущие месяцы Вы можете получить, выбрав интересующий диапазон дат из раскрывающегося списка и нажав кнопку "Ввод!".

Внимание! Архив погоды МЕТАР в базе сайта в настоящее время начинается c 1 января 2013 г. Нет смысла пытаться выбрать более раннюю дату.

Внимание! Время в таблицах - всемирное. Для получения местного времени необходимо прибавить поправку, которая в Сиэтле равна -8 ч.

Ветер - указаны скорость ветра в м/с и направление, откуда дует ветер: С - северный, СВ - северо-восточный, В - восточный, ЮВ - юго-восточный, Ю - южный, ЮЗ - юго-западный, З - западный, СЗ - северо-западный.
Видимость - горизонтальная дальность видимости в метрах или километрах. При видимости от 1 до 10 км при отсутствии осадков обычно наблюдается дымка, при ухудшении видимости до 1 км и менее - туман. В сухую погоду видимость может ухудшаться дымом, пылью или мглою.
Атмосферные явления - указаны явления, наблюдавшиеся в указанный момент времени.
Облачность - указаны через наклонную черту верхняя и нижняя облачность в баллах и высота нижней границы облаков в метрах. Внимание: облачность, как и прочие метеорологические величины в США измеряются автоматическими метеостанциями. Указанные значения в баллах носят условный характер и показывают процент времени, в течение которого, в среднем, лазерный луч высотомера отражался от облаков обратно.
T - Температура воздуха - температура, измеренная на высоте 2 м над землей.
Td - Температура точки росы - температура, при понижении до которой содержащийся в воздухе водяной пар достигнет насыщения.
f - Относительная влажность воздуха - влажноcть воздуха, измеренная на высоте 2 м над землей.
Te - Эффективная температура - температура, которую ощущает одетый по сезону человек в тени. Характеристика душности погоды. При расчете учитывается влияние влажности воздуха и скорости ветра на теплоощущения человека.
Tes - Эффективная температура на солнце - температура, которую ощущает человек, с поправкой на солнечный нагрев. Характеристика знойности погоды. Зависит от высоты солнца над горизонтом, облачности и скорости ветра. Ночью, в пасмурную погоду, а также при ветре 12 м/с и более поправка равна нулю.
P - Атмосферное давление - приведенное к уровню моря атмосферное давление.
Po - Атмосферное давление - измеренное на уровне метеостанции атмосферное давление.
Tmin - Минимальная температура - минимум температуры воздуха на высоте 2 м над землей.
Tmax - Максимальная температура - максимум температуры воздуха на высоте 2 м над землей.
R - Количество осадков - Количество выпавших осадков за 3 или 6 часов, мм.
SD - Снежный покров - Высота снежного покрова, см.